Flag for France Weather past 2 weeks in Strasbourg, France

Now
45 °F

Passing clouds.


Feels Like: 43 °F
Forecast: 55 / 70 °F
Wind: 3 mph from West

Location: Strasbourg Airport

Current Time: May 28, 2015 at 4:11:47 AM

Latest Report: May 28, 2015 at 3:30 AM


Visibility: N/A

Pressure: 30.12 "Hg

Humidity: 87%

Dew point: 41 °F

Location of StrasbourgLocation

Historic Weather in Strasbourg — Graph

°F

Strasbourg temperature yesterday

Maximum temperature yesterday: 64 °F (at 3:30 PM)
Minimum temperature yesterday: 46 °F (at 2:30 AM)
Average temperature yesterday: 56 °F

Past Weeks' High & Low Weather Summary

 TemperatureHumidityPressure
High77 °F (May 13, 5:00 PM)100% (May 14, 2:30 AM)30.33 "Hg (May 14, 2:30 AM)
Low41 °F (May 22, 5:30 AM)26% (May 22, 7:30 PM)29.74 "Hg (May 18, 5:30 PM)
Average59 °F65%30.07 "Hg
* Reported May 13 3:00 AM — May 28 3:00 AM, Strasbourg, Weather by CustomWeather, © 2015

Note: Actual official high and low records may vary slightly from our data, if they occured in-between our weather recording intervals... More about our weather records

Advertising

Strasbourg weather history for previous 24 hours

 ConditionsComfort  
Time TempWeatherWind HumidityBarometerVisibility
3:00 AM
Thu, May 28
45 °FClear.3 mph81%30.12 "Hg10 mi
2:30 AM46 °FClear.3 mph82%30.12 "Hg10 mi
2:00 AM46 °FClear.3 mph82%30.15 "Hg10 mi
1:30 AM48 °FClear.2 mph76%30.15 "Hg10 mi
1:00 AM48 °FClear.5 mph82%30.15 "Hg10 mi
12:30 AM50 °FPassing clouds.3 mph71%30.15 "HgN/A
12:00 AM52 °FPassing clouds.No wind67%30.15 "HgN/A
11:00 PM
Wed, May 27
54 °FClear.5 mph63%30.18 "Hg10 mi
10:30 PM55 °FPassing clouds.5 mph55%30.18 "HgN/A
10:00 PM57 °FPassing clouds.3 mph51%30.18 "HgN/A
9:30 PM57 °FPassing clouds.5 mph51%30.18 "HgN/A
9:00 PM59 °FPartly sunny.3 mph48%30.18 "HgN/A
8:30 PM61 °FScattered clouds.7 mph45%30.18 "HgN/A
8:00 PM63 °FPartly sunny.8 mph39%30.18 "HgN/A
7:30 PM63 °FPartly sunny.8 mph42%30.18 "HgN/A
7:00 PM63 °FScattered clouds.8 mph39%30.18 "HgN/A
6:30 PM64 °FPartly sunny.6 mph40%30.18 "HgN/A
6:00 PM63 °FPassing clouds.8 mph42%30.18 "HgN/A
5:30 PM64 °FPassing clouds.9 mph37%30.18 "HgN/A
5:00 PM64 °FScattered clouds.7 mph40%30.21 "HgN/A
4:30 PM64 °FScattered clouds.6 mph37%30.21 "HgN/A
4:00 PM64 °FScattered clouds.7 mph37%30.21 "HgN/A
3:30 PM64 °FPassing clouds.8 mph34%30.21 "HgN/A
3:00 PM63 °FPassing clouds.9 mph42%30.21 "HgN/A
2:30 PM63 °FScattered clouds.5 mph42%30.24 "HgN/A
2:00 PM61 °FPartly sunny.5 mph45%30.24 "HgN/A
1:30 PM61 °FPartly sunny.5 mph42%30.24 "HgN/A
1:00 PM61 °FPartly sunny.6 mph42%30.24 "HgN/A
12:30 PM61 °FPartly sunny.7 mph39%30.24 "HgN/A
12:00 PM57 °FPartly sunny.5 mph48%30.27 "HgN/A
11:30 AM57 °FPartly sunny.8 mph51%30.27 "HgN/A
11:00 AM57 °FBroken clouds.5 mph55%30.27 "HgN/A
10:30 AM57 °FMore clouds than sun.6 mph51%30.27 "HgN/A
10:00 AM57 °FOvercast.5 mph51%30.27 "HgN/A
9:30 AM55 °FOvercast.6 mph63%30.27 "HgN/A
9:00 AM55 °FOvercast.7 mph63%30.27 "HgN/A
8:30 AM54 °FOvercast.6 mph63%30.27 "HgN/A
8:00 AM54 °FOvercast.7 mph67%30.24 "HgN/A
7:30 AM52 °FOvercast.7 mph67%30.24 "HgN/A
7:00 AM52 °FOvercast.6 mph72%30.24 "HgN/A
6:30 AM50 °FMostly cloudy.3 mph76%30.24 "HgN/A
6:00 AM48 °FPassing clouds.5 mph82%30.24 "HgN/A
5:30 AM48 °FClear.3 mph76%30.24 "Hg10 mi
5:00 AM46 °FClear.3 mph82%30.24 "Hg10 mi
4:30 AM46 °FClear.1 mph82%30.24 "Hg10 mi
4:00 AM46 °FClear.2 mph82%30.24 "Hg10 mi
Weather by CustomWeather, © 2015

See weather overviewHow to use our weather pages